Toledo, OH

7:13 PM EDT on April 24, 2018 (GMT -0400)
Toledo Express

Weather History for KTOL - May, 2014

Change the Weather History Date:

Wednesday, May 7, 2014

  Actual Average Record
Temperature  
Mean Temperature 57 °F 57 °F  
Max Temperature 67 °F 68 °F 87 °F (1936)
Min Temperature 47 °F 46 °F 25 °F (1974)
Degree Days  
Heating Degree Days 8 9  
Month to date heating degree days 98 67  
Since 1 July heating degree days 7023 5969  
Cooling Degree Days 0 1  
Month to date cooling degree days 0 4  
Year to date cooling degree days 2 12  
Growing Degree Days 6 (Base 50)    
Moisture  
Dew Point 44 °F    
Average Humidity 72    
Maximum Humidity 86    
Minimum Humidity 58    
Precipitation  
Precipitation 0.17 in 0.10 in 0.64 in (2012)
Month to date precipitation 0.19 0.76  
Year to date precipitation 12.07 10.55  
Snow  
Snow 0.00 in 0.00 in - ()
Month to date snowfall 0.0 0.1  
Since 1 July snowfall 86.3 37.6  
Snow Depth 0.00 in    
Sea Level Pressure  
Sea Level Pressure 29.99 in    
Wind  
Wind Speed 12 mph (ENE)    
Max Wind Speed 23 mph    
Max Gust Speed 28 mph    
Visibility 10 miles    
Events Rain , Thunderstorm    
T = Trace of Precipitation, MM = Missing Value Source: NWS Daily Summary

Daily Weather History Graph

Daily Weather History Graph

Search for Another Location

Airport or City:

Astronomy

May. 07, 2014 Rise Set
Actual Time 6:24 AM EDT 8:39 PM EDT
Civil Twilight 5:53 AM EDT 9:10 PM EDT
Nautical Twilight 5:15 AM EDT 9:48 PM EDT
Astronomical Twilight 4:34 AM EDT 10:30 PM EDT
Moon 1:38 PM EDT (5/7) 2:28 AM EDT (5/7)
Length of Visible Light 15h 16m
Length of Day
14h 15m
First Quarter, 55% of the Moon is Illuminated
May 7
First Quarter
May 14
Full
May 21
Last Quarter
May 28
New
Jun 5
First Quarter

Hourly Weather History & Observations

Time (EDT) Temp. Dew Point Humidity Pressure Visibility Wind Dir Wind Speed Gust Speed Precip Events Conditions
12:52 AM 50.0 °F 37.0 °F 61% 30.05 in 10.0 mi ENE 11.5 mph - N/A   Partly Cloudy
1:52 AM 50.0 °F 37.0 °F 61% 30.02 in 10.0 mi East 10.4 mph - N/A   Overcast
2:09 AM 51.8 °F 37.4 °F 58% 30.02 in 10.0 mi East 10.4 mph - N/A Thunderstorm Overcast
2:52 AM 51.1 °F 37.9 °F 61% 30.01 in 10.0 mi East 12.7 mph - 0.00 in Thunderstorm Overcast
3:52 AM 46.9 °F 42.1 °F 83% 30.01 in 10.0 mi East 9.2 mph 18.4 mph 0.16 in Rain , Thunderstorm Thunderstorms and Rain
4:45 AM 48.2 °F 42.8 °F 82% 29.99 in 10.0 mi East 11.5 mph - 0.01 in Thunderstorm Overcast
4:52 AM 48.2 °F 42.8 °F 82% 29.99 in 10.0 mi East 10.4 mph - N/A   Overcast
5:52 AM 48.9 °F 43.0 °F 80% 30.00 in 10.0 mi East 9.2 mph - N/A   Overcast
6:52 AM 48.9 °F 43.0 °F 80% 30.00 in 10.0 mi ESE 9.2 mph - 0.00 in   Mostly Cloudy
7:52 AM 48.9 °F 44.1 °F 83% 30.03 in 10.0 mi East 10.4 mph - N/A   Clear
8:52 AM 51.1 °F 46.0 °F 83% 30.06 in 10.0 mi NE 13.8 mph - N/A   Clear
9:52 AM 51.1 °F 45.0 °F 80% 30.06 in 10.0 mi ENE 12.7 mph - N/A   Clear
10:52 AM 53.1 °F 45.0 °F 74% 30.02 in 10.0 mi East 15.0 mph - N/A   Partly Cloudy
11:52 AM 55.0 °F 46.0 °F 72% 30.02 in 10.0 mi ENE 15.0 mph - N/A   Partly Cloudy
12:52 PM 57.9 °F 46.9 °F 67% 30.01 in 10.0 mi East 11.5 mph - 0.00 in   Clear
1:52 PM 61.0 °F 48.0 °F 62% 30.01 in 10.0 mi ENE 11.5 mph - N/A   Clear
2:52 PM 63.0 °F 48.0 °F 58% 29.99 in 10.0 mi East 10.4 mph - N/A   Clear
3:52 PM 66.0 °F 51.1 °F 59% 29.95 in 10.0 mi ENE 10.4 mph - N/A   Clear
4:52 PM 66.9 °F 52.0 °F 59% 29.91 in 10.0 mi East 15.0 mph - N/A   Clear
5:52 PM 66.2 °F 51.8 °F 60% 29.93 in 10.0 mi East 11.5 mph - N/A   Clear
6:52 PM 60.1 °F 48.9 °F 67% 29.95 in 10.0 mi ENE 20.7 mph 27.6 mph N/A   Clear
7:52 PM 55.9 °F 44.1 °F 64% 29.95 in 10.0 mi ENE 16.1 mph - N/A   Clear
8:52 PM 55.0 °F 44.1 °F 67% 29.96 in 10.0 mi ENE 10.4 mph - N/A   Clear
9:52 PM 54.0 °F 44.1 °F 69% 29.96 in 10.0 mi ENE 9.2 mph - N/A   Clear
10:52 PM 53.1 °F 44.1 °F 71% 29.97 in 10.0 mi ENE 11.5 mph - N/A   Clear
11:52 PM 53.1 °F 44.1 °F 71% 29.95 in 10.0 mi ENE 13.8 mph - N/A   Clear